{"data":{"norad_id":64713,"epoch":"2026-09-20T18:06:47.179008Z","epoch_age_seconds":105752,"freshness":"FRESH","line1":"1 64713U 25142T   26263.75471272  .00009710  00000+0  34191-3 0  9996","line2":"2 64713  69.9999 180.0459 0003311 258.9177 101.1626 15.29568974 68746","mean_motion":15.29568974,"eccentricity":0.0003311,"inclination_deg":69.9999,"raan_deg":180.0459,"arg_perigee_deg":258.9177,"mean_anomaly_deg":101.1626,"bstar":0.00034191,"rev_number":6874,"period_min":94.144169009537,"perigee_km":474.83007811292,"apogee_km":479.36961595303,"semimajor_km":6855.236847033,"source":"CELESTRAK","updated_at":"2026-09-21T09:00:35.406615Z"}}